Time,TemperatureF,DewpointF,PressureIn,WindDirection,WindDirectionDegrees,WindSpeedMPH,WindSpeedGustMPH,Humidity,HourlyPrecipIn,Conditions,Clouds,dailyrainin,SoftwareType,DateUTC
2013-09-29 00:02:00,55.1,54.0,30.21,NNW,336,1.0,2.0,95,0.00,,,0.00,weatherlink.com 1.10,2013-09-29 04:02:00,
2013-09-29 00:17:00,55.2,53.0,30.20,NNW,336,0.0,2.0,93,0.00,,,0.00,weatherlink.com 1.10,2013-09-29 04:17:00,
2013-09-29 00:32:00,55.4,54.0,30.20,NNW,336,0.0,2.0,94,0.00,,,0.00,weatherlink.com 1.10,2013-09-29 04:32:00,
2013-09-29 00:47:00,55.6,54.0,30.19,NNW,336,0.0,2.0,94,0.00,,,0.00,weatherlink.com 1.10,2013-09-29 04:47:00,
2013-09-29 01:02:00,55.6,54.0,30.19,NNW,336,1.0,1.0,94,0.00,,,0.00,weatherlink.com 1.10,2013-09-29 05:02:00,
2013-09-29 01:17:00,55.4,54.0,30.19,NNE,23,0.0,0.0,94,0.00,,,0.00,weatherlink.com 1.10,2013-09-29 05:17:00,
2013-09-29 01:32:00,55.4,54.0,30.19,NNE,23,0.0,3.0,94,0.00,,,0.00,weatherlink.com 1.10,2013-09-29 05:32:00,
2013-09-29 01:47:00,55.6,54.0,30.19,NW,326,1.0,4.0,93,0.00,,,0.00,weatherlink.com 1.10,2013-09-29 05:47:00,
2013-09-29 02:02:00,55.6,54.0,30.19,NW,326,0.0,1.0,93,0.00,,,0.00,weatherlink.com 1.10,2013-09-29 06:02:00,
2013-09-29 02:17:00,55.3,54.0,30.18,NW,326,0.0,1.0,94,0.00,,,0.00,weatherlink.com 1.10,2013-09-29 06:17:00,
2013-09-29 02:32:00,55.5,54.0,30.18,NW,326,0.0,1.0,94,0.00,,,0.00,weatherlink.com 1.10,2013-09-29 06:32:00,
2013-09-29 02:47:00,55.3,54.0,30.17,NW,326,0.0,0.0,95,0.00,,,0.00,weatherlink.com 1.10,2013-09-29 06:47:00,
2013-09-29 03:02:00,55.4,54.0,30.17,NW,326,0.0,0.0,95,0.00,,,0.00,weatherlink.com 1.10,2013-09-29 07:02:00,
2013-09-29 03:17:00,55.2,54.0,30.17,NW,326,0.0,1.0,95,0.00,,,0.00,weatherlink.com 1.10,2013-09-29 07:17:00,
2013-09-29 03:32:00,55.3,54.0,30.17,NW,326,2.0,2.0,96,0.00,,,0.00,weatherlink.com 1.10,2013-09-29 07:32:00,
2013-09-29 03:47:00,55.3,54.0,30.17,NW,326,0.0,2.0,95,0.00,,,0.00,weatherlink.com 1.10,2013-09-29 07:47:00,
2013-09-29 04:02:00,55.0,54.0,30.17,NW,326,1.0,2.0,95,0.00,,,0.00,weatherlink.com 1.10,2013-09-29 08:02:00,
2013-09-29 04:17:00,54.5,53.0,30.17,NW,326,0.0,0.0,94,0.00,,,0.00,weatherlink.com 1.10,2013-09-29 08:17:00,
2013-09-29 04:32:00,53.9,53.0,30.17,NW,326,0.0,0.0,95,0.00,,,0.00,weatherlink.com 1.10,2013-09-29 08:32:00,
2013-09-29 04:48:00,53.0,52.0,30.16,NW,326,0.0,0.0,95,0.00,,,0.00,weatherlink.com 1.10,2013-09-29 08:48:00,
2013-09-29 05:03:00,52.0,51.0,30.16,NW,326,0.0,0.0,95,0.00,,,0.00,weatherlink.com 1.10,2013-09-29 09:03:00,
2013-09-29 05:18:00,51.6,50.0,30.16,NW,326,0.0,0.0,95,0.00,,,0.00,weatherlink.com 1.10,2013-09-29 09:18:00,
2013-09-29 05:33:00,51.1,50.0,30.16,NW,326,0.0,0.0,96,0.00,,,0.00,weatherlink.com 1.10,2013-09-29 09:33:00,
2013-09-29 05:48:00,50.9,50.0,30.16,NW,326,0.0,0.0,96,0.00,,,0.00,weatherlink.com 1.10,2013-09-29 09:48:00,
2013-09-29 06:03:00,50.4,50.0,30.16,NW,326,0.0,0.0,97,0.00,,,0.00,weatherlink.com 1.10,2013-09-29 10:03:00,
2013-09-29 06:18:00,49.0,48.0,30.16,NW,326,0.0,0.0,96,0.00,,,0.00,weatherlink.com 1.10,2013-09-29 10:18:00,
2013-09-29 06:33:00,48.8,48.0,30.17,NW,326,0.0,0.0,97,0.00,,,0.00,weatherlink.com 1.10,2013-09-29 10:33:00,
2013-09-29 06:48:00,48.8,48.0,30.17,NW,326,0.0,0.0,97,0.00,,,0.00,weatherlink.com 1.10,2013-09-29 10:48:00,
2013-09-29 07:03:00,48.8,48.0,30.17,NW,326,0.0,0.0,97,0.00,,,0.00,weatherlink.com 1.10,2013-09-29 11:03:00,
2013-09-29 07:18:00,49.2,49.0,30.18,NW,326,0.0,0.0,98,0.00,,,0.00,weatherlink.com 1.10,2013-09-29 11:18:00,
2013-09-29 07:33:00,48.8,48.0,30.18,NW,326,0.0,0.0,97,0.00,,,0.00,weatherlink.com 1.10,2013-09-29 11:33:00,
2013-09-29 07:48:00,49.9,49.0,30.18,NW,326,0.0,0.0,98,0.00,,,0.00,weatherlink.com 1.10,2013-09-29 11:48:00,
2013-09-29 08:03:00,51.3,51.0,30.18,NW,326,0.0,1.0,98,0.00,,,0.00,weatherlink.com 1.10,2013-09-29 12:03:00,
2013-09-29 08:18:00,51.8,51.0,30.17,NW,326,0.0,0.0,98,0.00,,,0.00,weatherlink.com 1.10,2013-09-29 12:18:00,
2013-09-29 08:33:00,54.2,54.0,30.17,NW,326,0.0,1.0,98,0.00,,,0.00,weatherlink.com 1.10,2013-09-29 12:33:00,
2013-09-29 08:48:00,56.1,56.0,30.16,NW,326,0.0,1.0,98,0.00,,,0.00,weatherlink.com 1.10,2013-09-29 12:48:00,
2013-09-29 09:03:00,59.1,56.0,30.17,NNW,327,0.0,2.0,90,0.00,,,0.00,weatherlink.com 1.10,2013-09-29 13:03:00,
2013-09-29 09:18:00,60.6,56.0,30.17,ENE,60,3.0,4.0,84,0.00,,,0.00,weatherlink.com 1.10,2013-09-29 13:18:00,
2013-09-29 09:33:00,61.3,56.0,30.16,NE,53,2.0,5.0,82,0.00,,,0.00,weatherlink.com 1.10,2013-09-29 13:33:00,
2013-09-29 09:49:00,62.3,56.0,30.16,ENE,74,3.0,4.0,81,0.00,,,0.00,weatherlink.com 1.10,2013-09-29 13:49:00,
2013-09-29 10:04:00,63.3,57.0,30.16,North,5,4.0,4.0,79,0.00,,,0.00,weatherlink.com 1.10,2013-09-29 14:04:00,
2013-09-29 10:19:00,64.1,58.0,30.16,NNE,13,0.0,4.0,80,0.00,,,0.00,weatherlink.com 1.10,2013-09-29 14:19:00,
2013-09-29 10:34:00,64.9,56.0,30.16,ENE,58,1.0,5.0,74,0.00,,,0.00,weatherlink.com 1.10,2013-09-29 14:34:00,
2013-09-29 10:49:00,65.4,58.0,30.15,ENE,69,2.0,5.0,77,0.00,,,0.00,weatherlink.com 1.10,2013-09-29 14:49:00,
2013-09-29 11:04:00,66.6,57.0,30.15,NNE,16,4.0,5.0,72,0.00,,,0.00,weatherlink.com 1.10,2013-09-29 15:04:00,
2013-09-29 11:19:00,67.1,57.0,30.15,NE,53,5.0,6.0,70,0.00,,,0.00,weatherlink.com 1.10,2013-09-29 15:19:00,
2013-09-29 11:34:00,67.4,56.0,30.15,NE,55,2.0,4.0,67,0.00,,,0.00,weatherlink.com 1.10,2013-09-29 15:34:00,
2013-09-29 11:49:00,68.2,55.0,30.14,ENE,74,2.0,5.0,64,0.00,,,0.00,weatherlink.com 1.10,2013-09-29 15:49:00,
2013-09-29 12:04:00,68.1,54.0,30.14,NNW,348,1.0,6.0,61,0.00,,,0.00,weatherlink.com 1.10,2013-09-29 16:04:00,
2013-09-29 12:19:00,66.8,55.0,30.14,North,355,2.0,6.0,65,0.00,,,0.00,weatherlink.com 1.10,2013-09-29 16:19:00,
2013-09-29 12:34:00,66.7,55.0,30.14,NNW,328,1.0,5.0,66,0.00,,,0.00,weatherlink.com 1.10,2013-09-29 16:34:00,
2013-09-29 12:49:00,66.0,55.0,30.13,North,5,0.0,3.0,67,0.00,,,0.00,weatherlink.com 1.10,2013-09-29 16:49:00,
2013-09-29 13:04:00,68.2,53.0,30.13,ENE,61,0.0,8.0,59,0.00,,,0.00,weatherlink.com 1.10,2013-09-29 17:04:00,
2013-09-29 13:19:00,68.3,56.0,30.12,ENE,62,0.0,3.0,64,0.00,,,0.00,weatherlink.com 1.10,2013-09-29 17:19:00,
2013-09-29 13:34:00,69.3,56.0,30.11,NNE,21,7.0,8.0,63,0.00,,,0.00,weatherlink.com 1.10,2013-09-29 17:34:00,
2013-09-29 13:49:00,68.8,56.0,30.10,NNW,346,0.0,4.0,63,0.00,,,0.00,weatherlink.com 1.10,2013-09-29 17:49:00,
2013-09-29 14:04:00,68.1,54.0,30.10,NE,48,0.0,3.0,62,0.00,,,0.00,weatherlink.com 1.10,2013-09-29 18:04:00,
2013-09-29 14:19:00,69.9,54.0,30.09,North,360,0.0,6.0,57,0.00,,,0.00,weatherlink.com 1.10,2013-09-29 18:19:00,
2013-09-29 14:34:00,69.0,54.0,30.09,NE,41,3.0,6.0,59,0.00,,,0.00,weatherlink.com 1.10,2013-09-29 18:34:00,
2013-09-29 14:49:00,68.3,53.0,30.08,NE,40,1.0,3.0,59,0.00,,,0.00,weatherlink.com 1.10,2013-09-29 18:49:00,
2013-09-29 15:04:00,69.5,53.0,30.08,NW,317,0.0,2.0,57,0.00,,,0.00,weatherlink.com 1.10,2013-09-29 19:04:00,
2013-09-29 15:19:00,69.8,53.0,30.08,ENE,62,3.0,8.0,55,0.00,,,0.00,weatherlink.com 1.10,2013-09-29 19:19:00,
2013-09-29 15:34:00,68.6,54.0,30.07,ENE,62,2.0,5.0,59,0.00,,,0.00,weatherlink.com 1.10,2013-09-29 19:34:00,
2013-09-29 15:49:00,70.2,53.0,30.06,ENE,65,0.0,4.0,55,0.00,,,0.00,weatherlink.com 1.10,2013-09-29 19:49:00,
2013-09-29 16:05:00,71.3,55.0,30.06,WNW,285,1.0,6.0,56,0.00,,,0.00,weatherlink.com 1.10,2013-09-29 20:05:00,
2013-09-29 16:20:00,71.0,53.0,30.06,ENE,59,5.0,7.0,54,0.00,,,0.00,weatherlink.com 1.10,2013-09-29 20:20:00,
2013-09-29 16:35:00,69.7,52.0,30.06,ENE,76,0.0,7.0,53,0.00,,,0.00,weatherlink.com 1.10,2013-09-29 20:35:00,
2013-09-29 16:50:00,69.5,52.0,30.05,ENE,69,0.0,3.0,55,0.00,,,0.00,weatherlink.com 1.10,2013-09-29 20:50:00,
2013-09-29 17:05:00,69.3,53.0,30.05,ENE,69,0.0,2.0,57,0.00,,,0.00,weatherlink.com 1.10,2013-09-29 21:05:00,
2013-09-29 17:20:00,70.7,53.0,30.05,ENE,72,1.0,3.0,53,0.00,,,0.00,weatherlink.com 1.10,2013-09-29 21:20:00,
2013-09-29 17:35:00,70.4,52.0,30.06,ENE,64,0.0,3.0,52,0.00,,,0.00,weatherlink.com 1.10,2013-09-29 21:35:00,
2013-09-29 17:50:00,70.6,55.0,30.06,ENE,63,1.0,3.0,59,0.00,,,0.00,weatherlink.com 1.10,2013-09-29 21:50:00,
2013-09-29 18:05:00,69.8,57.0,30.06,ENE,63,0.0,2.0,64,0.00,,,0.00,weatherlink.com 1.10,2013-09-29 22:05:00,
2013-09-29 18:20:00,68.4,57.0,30.07,ENE,63,0.0,1.0,67,0.00,,,0.00,weatherlink.com 1.10,2013-09-29 22:20:00,
2013-09-29 18:35:00,68.2,58.0,30.06,ENE,63,0.0,0.0,71,0.00,,,0.00,weatherlink.com 1.10,2013-09-29 22:35:00,
2013-09-29 18:50:00,65.4,57.0,30.06,ENE,63,0.0,0.0,73,0.00,,,0.00,weatherlink.com 1.10,2013-09-29 22:50:00,
2013-09-29 19:05:00,62.2,55.0,30.06,ENE,63,0.0,2.0,78,0.00,,,0.00,weatherlink.com 1.10,2013-09-29 23:05:00,
2013-09-29 19:20:00,59.4,54.0,30.06,ENE,63,0.0,1.0,83,0.00,,,0.00,weatherlink.com 1.10,2013-09-29 23:20:00,
2013-09-29 19:35:00,57.6,54.0,30.06,ENE,63,0.0,1.0,86,0.00,,,0.00,weatherlink.com 1.10,2013-09-29 23:35:00,
2013-09-29 19:50:00,56.3,53.0,30.06,ENE,63,0.0,0.0,87,0.00,,,0.00,weatherlink.com 1.10,2013-09-29 23:50:00,
2013-09-29 20:05:00,55.5,52.0,30.06,ENE,63,0.0,0.0,88,0.00,,,0.00,weatherlink.com 1.10,2013-09-30 00:05:00,
2013-09-29 20:20:00,54.6,52.0,30.06,ENE,63,0.0,0.0,89,0.00,,,0.00,weatherlink.com 1.10,2013-09-30 00:20:00,
2013-09-29 20:35:00,54.4,52.0,30.07,ENE,63,0.0,0.0,92,0.00,,,0.00,weatherlink.com 1.10,2013-09-30 00:35:00,
2013-09-29 20:50:00,54.0,52.0,30.07,ENE,63,0.0,0.0,91,0.00,,,0.00,weatherlink.com 1.10,2013-09-30 00:50:00,
2013-09-29 21:05:00,53.4,51.0,30.07,ENE,63,0.0,0.0,92,0.00,,,0.00,weatherlink.com 1.10,2013-09-30 01:05:00,
2013-09-29 21:20:00,52.9,51.0,30.06,ENE,63,0.0,0.0,93,0.00,,,0.00,weatherlink.com 1.10,2013-09-30 01:20:00,
2013-09-29 21:35:00,52.9,51.0,30.06,ENE,63,0.0,0.0,94,0.00,,,0.00,weatherlink.com 1.10,2013-09-30 01:35:00,
2013-09-29 21:50:00,52.5,51.0,30.07,ENE,63,0.0,0.0,94,0.00,,,0.00,weatherlink.com 1.10,2013-09-30 01:50:00,
2013-09-29 22:05:00,52.1,51.0,30.07,ENE,63,0.0,0.0,95,0.00,,,0.00,weatherlink.com 1.10,2013-09-30 02:05:00,
2013-09-29 22:20:00,51.4,50.0,30.07,ENE,63,0.0,1.0,94,0.00,,,0.00,weatherlink.com 1.10,2013-09-30 02:20:00,
2013-09-29 22:35:00,51.4,50.0,30.07,ENE,63,0.0,0.0,95,0.00,,,0.00,weatherlink.com 1.10,2013-09-30 02:35:00,
2013-09-29 22:50:00,51.5,50.0,30.07,ENE,63,0.0,0.0,95,0.00,,,0.00,weatherlink.com 1.10,2013-09-30 02:50:00,
2013-09-29 23:05:00,50.8,49.0,30.07,ENE,63,0.0,1.0,94,0.00,,,0.00,weatherlink.com 1.10,2013-09-30 03:05:00,
2013-09-29 23:20:00,50.1,49.0,30.07,ENE,63,0.0,1.0,95,0.00,,,0.00,weatherlink.com 1.10,2013-09-30 03:20:00,
2013-09-29 23:35:00,50.3,49.0,30.06,ENE,63,0.0,0.0,96,0.00,,,0.00,weatherlink.com 1.10,2013-09-30 03:35:00,
2013-09-29 23:50:00,50.3,50.0,30.06,ENE,63,0.0,1.0,97,0.00,,,0.00,weatherlink.com 1.10,2013-09-30 03:50:00,